Change the Weather History Date:

Sunday, September 29, 2013

  Actual Average Record
Temperature  
Mean Temperature 54 °F -  
Max Temperature 57 °F 72 °F 87 °F (2006)
Min Temperature 51 °F 47 °F 37 °F (1999)
Degree Days  
Heating Degree Days 11    
Growing Degree Days 4 (Base 50)    
Moisture  
Dew Point 52 °F    
Average Humidity 92    
Maximum Humidity 100    
Minimum Humidity 72    
Precipitation  
Precipitation 1.74 in - - ()
Sea Level Pressure  
Sea Level Pressure 29.66 in    
Wind  
Wind Speed 17 mph (South)    
Max Wind Speed 29 mph    
Max Gust Speed 37 mph    
Visibility 9 miles    
Events      
Averages and records for this station are not official NWS values.
T = Trace of Precipitation, MM = Missing Value Source: NWS Daily Summary

Daily Weather History Graph

Daily Weather History Graph

Search for Another Location

Airport or City:

Trip Planner

Search our weather history database for the weather conditions in past years. The results will help you decide how hot, cold, wet, or windy it might be!

Date:

Astronomy

Sep. 29, 2013 Rise Set
Actual Time 7:09 AM PDT 6:56 PM PDT
Civil Twilight 6:40 AM PDT 7:25 PM PDT
Nautical Twilight 6:06 AM PDT 7:59 PM PDT
Astronomical Twilight 5:31 AM PDT 8:33 PM PDT
Moon 1:45 AM PDT (9/29) 4:05 PM PDT (9/29)
Length of Visible Light 12h 45m
Length of Day
11h 47m
Waning Crescent, 26% of the Moon is Illuminated
Sep 29
Waning Crescent
Oct 4
New
Oct 11
First Quarter
Oct 18
Full
Oct 26
Last Quarter

Hourly Weather History & Observations

Time (PDT) Temp. Dew Point Humidity Pressure Visibility Wind Dir Wind Speed Gust Speed Precip Events Conditions
12:15 AM 53.6 °F 51.8 °F 94% 29.71 in 10.0 mi South 15.0 mph - N/A   Overcast
12:35 AM 53.6 °F 50.0 °F 88% 29.72 in 10.0 mi South 15.0 mph - N/A   Overcast
12:55 AM 51.8 °F 50.0 °F 94% 29.71 in 10.0 mi South 18.4 mph - N/A   Mostly Cloudy
1:15 AM 51.8 °F 50.0 °F 94% 29.72 in 10.0 mi South 16.1 mph - N/A   Scattered Clouds
1:35 AM 53.6 °F 50.0 °F 88% 29.72 in 10.0 mi South 17.3 mph - N/A   Mostly Cloudy
1:55 AM 53.6 °F 51.8 °F 94% 29.72 in 10.0 mi South 13.8 mph - N/A   Overcast
2:15 AM 53.6 °F 51.8 °F 94% 29.73 in 10.0 mi South 15.0 mph - N/A   Overcast
2:35 AM 53.6 °F 51.8 °F 94% 29.73 in 10.0 mi South 16.1 mph - N/A   Mostly Cloudy
2:55 AM 53.6 °F 51.8 °F 94% 29.73 in 10.0 mi South 15.0 mph 20.7 mph N/A   Overcast
3:15 AM 53.6 °F 51.8 °F 94% 29.74 in 10.0 mi South 17.3 mph 23.0 mph N/A   Overcast
3:35 AM 53.6 °F 51.8 °F 94% 29.73 in 10.0 mi South 18.4 mph - N/A   Overcast
3:55 AM 53.6 °F 51.8 °F 94% 29.73 in 10.0 mi South 18.4 mph 23.0 mph N/A   Overcast
4:15 AM 53.6 °F 51.8 °F 94% 29.72 in 10.0 mi South 17.3 mph 24.2 mph N/A   Overcast
4:35 AM 53.6 °F 51.8 °F 94% 29.73 in 10.0 mi South 17.3 mph - N/A   Overcast
4:55 AM 53.6 °F 51.8 °F 94% 29.72 in 10.0 mi South 17.3 mph 21.9 mph N/A   Mostly Cloudy
5:15 AM 53.6 °F 51.8 °F 94% 29.72 in 10.0 mi South 15.0 mph - N/A   Overcast
5:35 AM 53.6 °F 51.8 °F 94% 29.72 in 10.0 mi South 16.1 mph - N/A   Overcast
5:55 AM 53.6 °F 51.8 °F 94% 29.71 in 9.0 mi South 18.4 mph - 0.01 in   Mostly Cloudy
6:15 AM 53.6 °F 51.8 °F 94% 29.71 in 10.0 mi South 18.4 mph - N/A   Mostly Cloudy
6:35 AM 53.6 °F 51.8 °F 94% 29.71 in 10.0 mi South 18.4 mph 23.0 mph 0.01 in   Mostly Cloudy
6:55 AM 53.6 °F 51.8 °F 94% 29.72 in 7.0 mi South 13.8 mph - 0.07 in   Overcast
7:15 AM 53.6 °F 51.8 °F 94% 29.71 in 10.0 mi South 13.8 mph - 0.01 in   Mostly Cloudy
7:35 AM 53.6 °F 51.8 °F 94% 29.72 in 10.0 mi South 13.8 mph - 0.01 in   Overcast
7:55 AM 53.6 °F 51.8 °F 94% 29.72 in 10.0 mi South 11.5 mph - 0.05 in   Overcast
8:15 AM 53.6 °F 51.8 °F 94% 29.73 in 10.0 mi SSW 10.4 mph - 0.01 in   Overcast
8:35 AM 53.6 °F 51.8 °F 94% 29.73 in 10.0 mi South 10.4 mph - 0.01 in   Mostly Cloudy
8:55 AM 53.6 °F 51.8 °F 94% 29.73 in 10.0 mi South 13.8 mph - 0.02 in   Overcast
9:15 AM 53.6 °F 51.8 °F 94% 29.74 in 10.0 mi South 11.5 mph - N/A   Overcast
9:35 AM 53.6 °F 51.8 °F 94% 29.74 in 10.0 mi South 15.0 mph - 0.01 in   Overcast
9:55 AM 53.6 °F 51.8 °F 94% 29.74 in 10.0 mi South 16.1 mph - 0.01 in   Mostly Cloudy
10:15 AM 53.6 °F 51.8 °F 94% 29.74 in 10.0 mi South 16.1 mph - 0.01 in   Overcast
10:35 AM 55.4 °F 51.8 °F 88% 29.74 in 10.0 mi South 16.1 mph - 0.01 in   Mostly Cloudy
10:55 AM 55.4 °F 51.8 °F 88% 29.74 in 10.0 mi South 15.0 mph - 0.02 in   Overcast
11:15 AM 55.4 °F 51.8 °F 88% 29.73 in 10.0 mi South 18.4 mph - 0.01 in   Overcast
11:35 AM 53.6 °F 51.8 °F 94% 29.73 in 9.0 mi South 15.0 mph - 0.02 in   Overcast
11:55 AM 53.6 °F 51.8 °F 94% 29.73 in 9.0 mi South 17.3 mph - 0.04 in   Overcast
12:15 PM 53.6 °F 51.8 °F 94% 29.72 in 9.0 mi South 17.3 mph - 0.03 in   Overcast
12:35 PM 55.4 °F 53.6 °F 94% 29.70 in 10.0 mi South 19.6 mph - 0.05 in   Overcast
12:55 PM 55.4 °F 53.6 °F 94% 29.69 in 10.0 mi South 18.4 mph - 0.08 in   Mostly Cloudy
1:15 PM 55.4 °F 51.8 °F 88% 29.68 in 9.0 mi South 21.9 mph 26.5 mph 0.03 in   Overcast
1:35 PM 53.6 °F 51.8 °F 94% 29.67 in 8.0 mi South 20.7 mph 28.8 mph 0.06 in   Overcast
1:55 PM 53.6 °F 51.8 °F 94% 29.68 in 5.0 mi South 21.9 mph 28.8 mph 0.13 in   Mostly Cloudy
2:15 PM 53.6 °F 51.8 °F 94% 29.66 in 5.0 mi South 20.7 mph - 0.07 in   Overcast
2:35 PM 53.6 °F 51.8 °F 94% 29.66 in 7.0 mi South 24.2 mph 27.6 mph 0.12 in   Overcast
2:55 PM 53.6 °F 51.8 °F 94% 29.65 in 7.0 mi South 21.9 mph 28.8 mph 0.18 in   Overcast
3:15 PM 53.6 °F 51.8 °F 94% 29.64 in 6.0 mi South 24.2 mph 28.8 mph 0.05 in   Overcast
3:35 PM 53.6 °F 53.6 °F 100% 29.63 in 7.0 mi South 19.6 mph 28.8 mph 0.10 in   Overcast
3:55 PM 53.6 °F 53.6 °F 100% 29.62 in 7.0 mi South 20.7 mph 28.8 mph 0.15 in   Overcast
4:15 PM 53.6 °F 51.8 °F 94% 29.60 in 8.0 mi South 24.2 mph 31.1 mph 0.05 in   Overcast
4:35 PM 53.6 °F 51.8 °F 94% 29.59 in 7.0 mi South 23.0 mph 28.8 mph 0.11 in   Overcast
4:55 PM 53.6 °F 51.8 °F 94% 29.59 in 6.0 mi South 25.3 mph 32.2 mph 0.19 in   Overcast
5:15 PM 53.6 °F 51.8 °F 94% 29.58 in 5.0 mi South 23.0 mph 31.1 mph 0.09 in   Overcast
5:35 PM 53.6 °F 51.8 °F 94% 29.56 in 7.0 mi South 25.3 mph 32.2 mph 0.17 in   Overcast
5:55 PM 53.6 °F 51.8 °F 94% 29.55 in 5.0 mi South 28.8 mph 35.7 mph 0.26 in   Overcast
6:15 PM 53.6 °F 51.8 °F 94% 29.54 in 5.0 mi South 26.5 mph 35.7 mph 0.08 in   Overcast
6:35 PM 53.6 °F 51.8 °F 94% 29.53 in 7.0 mi South 26.5 mph 34.5 mph 0.14 in   Overcast
6:55 PM 53.6 °F 51.8 °F 94% 29.52 in 5.0 mi South 27.6 mph 33.4 mph N/A   Unknown
7:15 PM 53.6 °F 51.8 °F 94% 29.50 in 4.0 mi South 26.5 mph 34.5 mph 0.02 in   Overcast
7:35 PM 53.6 °F 53.6 °F 100% 29.49 in 5.0 mi South 25.3 mph 36.8 mph 0.05 in   Overcast
7:55 PM 55.4 °F 53.6 °F 94% 29.49 in 6.0 mi South 24.2 mph 34.5 mph 0.07 in   Overcast
8:15 PM 55.4 °F 53.6 °F 94% 29.49 in 6.0 mi South 24.2 mph 29.9 mph 0.05 in   Overcast
8:35 PM 55.4 °F 53.6 °F 94% 29.49 in 5.0 mi South 21.9 mph 29.9 mph 0.14 in   Overcast
8:55 PM 55.4 °F 53.6 °F 94% 29.51 in 5.0 mi South 20.7 mph 24.2 mph 0.24 in   Overcast
9:15 PM 55.4 °F 55.4 °F 100% 29.54 in 10.0 mi SSW 8.1 mph - 0.03 in   Overcast
9:35 PM 57.2 °F 53.6 °F 88% 29.55 in 10.0 mi WSW 11.5 mph 21.9 mph 0.04 in   Overcast
9:55 PM 57.2 °F 51.8 °F 82% 29.58 in 10.0 mi West 16.1 mph 25.3 mph 0.06 in   Overcast
10:15 PM 55.4 °F 51.8 °F 88% 29.60 in 9.0 mi WSW 8.1 mph 16.1 mph 0.02 in   Mostly Cloudy
10:35 PM 55.4 °F 51.8 °F 88% 29.61 in 10.0 mi WSW 15.0 mph 18.4 mph 0.02 in   Mostly Cloudy
10:55 PM 55.4 °F 48.2 °F 77% 29.62 in 10.0 mi SSW 4.6 mph - 0.02 in   Mostly Cloudy
11:15 PM 55.4 °F 46.4 °F 72% 29.64 in 10.0 mi SW 9.2 mph - N/A   Scattered Clouds
11:35 PM 53.6 °F 46.4 °F 77% 29.65 in 10.0 mi SW 5.8 mph - N/A   Mostly Cloudy
11:55 PM 53.6 °F 46.4 °F 77% 29.66 in 10.0 mi WSW 10.4 mph - N/A   Scattered Clouds